Weather History for La Ceiba, Honduras

Change the Weather History Date:

Thursday, November 8, 2012

  Actual Average Record
Temperature  
Mean Temperature 70 °F -  
Max Temperature 75 °F 80 °F 87 °F (1996)
Min Temperature 66 °F 67 °F 63 °F (2014)
Cooling Degree Days 6    
Growing Degree Days 20 (Base 50)    
Moisture  
Dew Point 67 °F    
Average Humidity 88    
Maximum Humidity 99    
Minimum Humidity 65    
Precipitation  
Precipitation 0.63 in 0.69 in - ()
Sea Level Pressure  
Sea Level Pressure 30.03 in    
Wind  
Wind Speed 5 mph ()    
Max Wind Speed 64 mph    
Max Gust Speed -    
Visibility 3.9 miles    
Events Rain    
Averages and records for this station are not official NWS values.
T = Trace of Precipitation, MM = Missing Value Source: Averaged Metar Reports

Daily Weather History Graph

Daily Weather History Graph

Search for Another Location

Airport:

Trip Planner

Search our weather history database for the weather conditions in past years. The results will help you decide how hot, cold, wet, or windy it might be!

Date:

Astronomy

Nov. 08, 2012 Rise Set
Actual Time 5:46 AM CST 5:15 PM CST
Civil Twilight 5:24 AM CST 5:37 PM CST
Nautical Twilight 4:58 AM CST 6:03 PM CST
Astronomical Twilight 4:33 AM CST 6:29 PM CST
Moon 12:34 AM CST (11/8) 1:08 PM CST (11/8)
Length of Visible Light 12h 12m
Length of Day
11h 28m
Waning Crescent, 32% of the Moon is Illuminated
Nov 8
Waning Crescent
Nov 13
New
Nov 20
First Quarter
Nov 28
Full
Dec 6
Last Quarter

Hourly Weather History & Observations

Time (CST) Temp. Dew Point Humidity Pressure Visibility Wind Dir Wind Speed Gust Speed Precip Events Conditions
12:00 AM 69 °F 60 °F 65% 30.02 in 10 mi North 2.3 mph - -   Haze
12:00 AM 68.0 °F 60.8 °F 78% 30.01 in 6.2 mi North 2.3 mph - N/A   Mostly Cloudy
6:00 AM 67 °F 65 °F 92% 30.00 in 12 mi SSE 2.3 mph - -   Haze
6:00 AM 68.0 °F 64.4 °F 88% 30.01 in 6.2 mi SSE 2.3 mph - N/A   Scattered Clouds
7:00 AM 68.0 °F 66.2 °F 94% 30.04 in 6.2 mi Calm Calm - N/A   Mostly Cloudy
9:00 AM 74 °F 67 °F 74% 30.05 in 6 mi WSW 5.8 mph - - Rain Light Drizzle
9:00 AM 73.4 °F 68.0 °F 83% 30.04 in 6.2 mi WSW 5.8 mph - N/A   Drizzle
10:00 AM 71.6 °F 69.8 °F 94% 30.06 in 1.9 mi East 3.5 mph - N/A Rain Light Rain
11:00 AM 75.2 °F 69.8 °F 83% 30.06 in 6.2 mi Calm Calm - N/A   Overcast
12:00 PM 73.4 °F 69.8 °F 88% 30.06 in 1.2 mi WSW 3.5 mph - N/A   Heavy Drizzle
1:00 PM 71.6 °F 69.8 °F 94% 30.04 in 0.6 mi SW 4.6 mph - N/A Rain Light Rain
2:00 PM 71.6 °F 69.8 °F 94% 30.04 in 1.2 mi South 64.4 mph - N/A   Light Drizzle
3:00 PM 70 °F 70 °F 99% 30.01 in 1 mi SSW 4.6 mph - - Rain Light Rain
3:00 PM 71.6 °F 69.8 °F 94% 30.01 in 0.6 mi SSW 4.6 mph - N/A Rain Light Rain
4:00 PM 71.6 °F 69.8 °F 94% 30.01 in 3.1 mi South 5.8 mph - N/A   Overcast
5:00 PM 71.6 °F 68.0 °F 88% 30.01 in 6.2 mi Calm Calm - N/A   Overcast
6:00 PM 71 °F 69 °F 89% 30.01 in 1 mi WNW 2.3 mph - - Rain Rain
6:00 PM 71.6 °F 68.0 °F 88% 30.01 in 0.6 mi WNW 2.3 mph - N/A Rain Light Rain
7:00 PM 71.6 °F 64.4 °F 78% 30.01 in 5.0 mi SSE 4.6 mph - N/A   Mostly Cloudy
8:00 PM 69.8 °F 66.2 °F 88% 30.01 in 6.2 mi NNE 5.8 mph - N/A   Mostly Cloudy
9:00 PM 70 °F 67 °F 88% 30.07 in 1 mi ESE 11.5 mph - - Rain Light Rain
9:00 PM 69.8 °F 68.0 °F 94% 30.06 in 1.2 mi ESE 11.5 mph - N/A Rain Light Rain
10:00 PM 69.8 °F 64.4 °F 83% 30.04 in 2.5 mi South 8.1 mph - N/A   Drizzle
11:00 PM 68.0 °F 66.2 °F 94% 30.01 in 1.9 mi Variable 2.3 mph - N/A   Drizzle